[[{"header":{"parameterUnit":"m.s-1","parameterCategory":1,"la1":30.2991,"la2":30.254,"lo1":-89.0895,"lo2":-89.0444,"dy":0.0017,"dx":0.0017,"nx":28,"ny":28,"refTime":"2024-05-30T09:00:00:Z","depth":0,"parameterNumber":2,"parameterNumberName":"U-component_of_WINDS"},"data":[0,0,0,0,0,0,0,0,0,0,0,0,0,0,0,0,0,0,0,0,0,0,0,0,0,0,0,0,0,0,0,0,0,0,0,0,0,0,0,0,0,0,0,0,0,0,0,0,0,0,0,0,0,0,0,0,0,0,-2.8837,-2.8838,0,-2.8936,-2.8937,-2.8938,-2.8938,-2.8937,-2.8936,-2.8935,-2.9034,-2.9037,-2.9041,0,0,0,0,0,0,0,0,0,0,0,0,0,-2.8647,-2.865,-2.8837,-2.8838,-2.8839,-2.8935,-2.8937,-2.8938,-2.8939,-2.8937,-2.8935,-2.8934,-2.9032,-2.9037,-2.9041,0,0,0,0,0,0,0,0,0,0,0,0,0,-2.8736,-2.8652,-2.8837,-2.8851,-2.8854,-2.8935,-2.8937,-2.8938,-2.8939,-2.8937,-2.8935,-2.8933,-2.9031,-2.9036,-2.9042,-2.9115,0,0,-2.9059,-2.9062,0,0,0,0,0,0,0,0,-2.8731,-2.8743,-2.8848,-2.885,-2.8853,-2.8923,-2.8906,-2.8998,-2.8939,-2.8906,-2.8935,-2.8932,-2.8998,-2.9006,-2.9029,-2.912,-2.9124,-2.906,-2.9063,-2.9066,-2.9067,0,0,0,0,0,0,0,-2.8725,-2.8738,-2.8876,-2.8849,-2.8853,-2.8852,-2.8863,-2.8923,-2.8962,-2.8909,-2.8909,-2.8921,-2.8999,-2.9023,-2.9031,-2.9125,-2.906,-2.9065,-2.9068,-2.9071,-2.9279,-2.9281,0,0,0,0,0,0,-2.8716,-2.8733,-2.8873,-2.8879,-2.8786,-2.8857,-2.8869,-2.8902,-2.8961,-2.8968,-2.8923,-2.8921,-2.9015,-2.9025,-2.9035,-2.9122,-2.9066,-2.9071,-2.9074,-2.9277,-2.928,-2.9282,0,0,0,0,0,0,-2.8712,-2.8728,-2.8869,-2.8806,-2.8824,-2.8862,-2.89,-2.8905,-2.8929,-2.8971,-2.8978,-2.8941,-2.9013,-2.9027,-2.9095,-2.9126,-2.9074,-2.9079,-2.9275,-2.9278,-2.9281,-2.93,0,0,0,0,0,0,-2.8706,-2.8727,-2.8755,-2.8807,-2.8827,-2.8928,-2.8902,-2.8909,-2.894,-2.8938,-2.899,-2.8996,-2.9013,-2.9086,-2.9101,-2.9133,-2.9083,-2.9272,-2.9276,-2.928,-2.9296,-2.9303,-2.9309,0,0,0,0,0,-2.8699,-2.8757,-2.8757,-2.8774,-2.8864,-2.893,-2.8941,-2.896,-2.8942,-2.8971,-2.8997,-2.8995,-2.9121,-2.9093,-2.9109,-2.9144,-2.927,-2.9275,-2.928,-2.9293,-2.9302,-2.9309,0,0,0,0,0,0,-2.8707,-2.8764,-2.8764,-2.884,-2.888,-2.893,-2.8966,-2.8968,-2.9014,-2.901,-2.9031,-2.9042,-2.911,-2.9134,-2.9102,-2.9217,-2.9193,-2.9201,-2.9198,-2.9206,-2.9212,-2.9204,-2.9088,0,0,0,0,0,-2.8718,-2.8767,-2.8814,-2.8876,-2.8896,-2.8928,-2.8957,-2.8968,-2.901,-2.9026,-2.9058,-2.9098,-2.9147,-2.9178,-2.9226,-2.9301,-2.9311,-2.9332,-2.9339,-2.9343,-2.9349,-2.9389,-2.9399,-2.9298,-2.9298,-2.9298,0,0,-2.874,-2.8777,-2.8807,-2.8878,-2.891,-2.896,-2.8942,-2.8995,-2.9032,-2.9034,-2.91,-2.9125,-2.9171,-2.9243,-2.9276,-2.9265,-2.938,-2.935,-2.9353,-2.9357,-2.9395,-2.9405,-2.9413,-2.9301,-2.9301,-2.93,0,0,-2.8805,-2.8839,-2.8893,-2.8926,-2.8976,-2.8996,-2.901,-2.9059,-2.9076,-2.9142,-2.9145,-2.9189,-2.9272,-2.9305,-2.9332,-2.941,-2.9408,-2.9425,-2.9456,-2.9494,-2.9502,-2.9509,-2.9535,-2.9544,-2.9431,-2.9431,-2.9431,0,-2.8826,-2.8901,-2.8921,-2.8974,-2.9005,-2.9011,-2.9066,-2.9096,-2.9158,-2.9179,-2.9167,-2.9271,-2.9303,-2.9381,-2.94,-2.9423,-2.9437,-2.9417,-2.95,-2.9507,-2.9514,-2.9538,-2.9548,-2.9432,-2.9432,-2.9432,-2.9432,0,-2.8923,-2.8975,-2.9014,-2.9073,-2.9109,-2.9162,-2.919,-2.9223,-2.9231,-2.9253,-2.932,-2.9359,-2.9413,-2.9433,-2.9441,-2.9512,-2.9504,-2.9496,-2.9472,-2.9525,-2.9548,-2.9558,-2.9435,-2.9434,-2.9434,-2.9433,0,0,-2.8994,-2.9065,-2.9078,-2.9105,-2.916,-2.92,-2.9254,-2.9307,-2.9334,-2.9377,-2.9422,-2.9493,-2.9485,-2.9516,-2.9528,-2.9563,-2.9619,-2.955,-2.9551,-2.9559,-2.9697,-2.9701,-2.9712,-2.9619,-2.9621,-2.9623,-2.9692,0,-2.9063,-2.9159,-2.9179,-2.9261,-2.9308,-2.9315,-2.9361,-2.94,-2.9422,-2.9465,-2.9489,-2.9538,-2.9526,-2.9544,-2.9578,-2.9605,-2.9646,-2.96,-2.9659,-2.9661,-2.9645,-2.9724,-2.9729,-2.9793,-2.9702,-2.9703,-2.9705,0,-2.9157,-2.9201,-2.9288,-2.9336,-2.9356,-2.9398,-2.9448,-2.949,-2.9533,-2.9546,-2.9581,-2.959,-2.9645,-2.962,-2.9696,-2.9664,-2.9689,-2.9706,-2.9709,-2.9713,-2.9684,-2.9728,-2.9814,-2.9822,-2.972,-2.9718,-2.9717,0,-2.9197,-2.9279,-2.9341,-2.9364,-2.9422,-2.9451,-2.9476,-2.9518,-2.9548,-2.9592,-2.9612,-2.9662,-2.9688,-2.9726,-2.9748,-2.9728,-2.9821,-2.9798,-2.9832,-2.9831,-2.9849,-2.9847,-2.9937,-2.987,-2.987,-2.9869,-2.9869,0,-2.927,-2.9323,-2.936,-2.9398,-2.9457,-2.9479,-2.9536,-2.9561,-2.9598,-2.964,-2.965,-2.9689,-2.9716,-2.9759,-2.9776,-2.9835,-2.9848,-2.9859,-2.9862,-2.9857,-2.9855,-2.9872,-2.9867,-2.9872,-2.9871,-2.9871,-2.987,0,-2.9324,-2.9352,-2.9419,-2.9469,-2.9482,-2.9523,-2.9565,-2.9601,-2.9624,-2.9677,-2.9691,-2.9726,-2.9777,-2.9803,-2.9867,-2.9878,-2.9944,-2.9946,-2.9929,-2.993,-2.9961,-2.9957,-3.0063,-3.0077,-3.0002,-3.0003,-3.0004,0,-2.9368,-2.9409,-2.9462,-2.9491,-2.9517,-2.9564,-2.9595,-2.9619,-2.9651,-2.9703,-2.9733,-2.9785,-2.9827,-2.9908,-2.9939,-2.9987,-2.9989,-3.0023,-2.9996,-2.9989,-2.9987,-2.9983,-2.9986,-3.0027,-3.0028,-3.0028,-3.0029,0,-2.9443,-2.9454,-2.9499,-2.9548,-2.9585,-2.9626,-2.9665,-2.9688,-2.9718,-2.9754,-2.9806,-2.9839,-2.9904,-2.9954,-3.0005,-3.003,-3.0034,-3.0037,-3.0047,-3.004,-3.0028,-3.0033,-2.9939,-3.0034,-3.0033,-3.0033,-3.0033,-3.0033,-2.9492,-2.9527,-2.957,-2.9619,-2.9651,-2.9688,-2.9724,-2.9751,-2.9796,-2.985,-2.9862,-2.9917,-2.9958,-3.0027,-3.0054,-3.0097,-3.0089,-3.0104,-3.0107,-3.011,-3.011,-3.0023,-3.0106,-3.0106,-3.0106,-3.0106,-3.0106,0,-2.9564,-2.9592,-2.9638,-2.9692,-2.9731,-2.9732,-2.9776,-2.9807,-2.9856,-2.9895,-2.9936,-2.9996,-3.0045,-3.008,-3.0129,-3.0157,-3.0159,-3.0169,-3.0166,-3.0171,-3.0115,-3.0101,-3.0165,-3.0165,-3.0165,-3.0165,-3.0165,-3.0165,-2.9607,-2.9666,-2.9683,-2.9758,-2.9785,-2.9839,-2.9864,-2.9897,-2.9928,-2.9994,-3.0035,-3.0058,-3.0094,-3.0147,-3.0192,-3.0201,-3.0217,-3.0226,-3.0235,-3.0182,-3.0175,-3.0169,-3.0155,-3.023,-3.023,-3.0287,-3.0287,-3.0287]},{"header":{"parameterUnit":"m.s-1","parameterCategory":1,"la1":30.2991,"la2":30.254,"lo1":-89.0895,"lo2":-89.0444,"dy":0.0017,"dx":0.0017,"nx":28,"ny":28,"refTime":"2024-05-30T09:00:00:Z","depth":0,"parameterNumber":3,"parameterNumberName":"V-component_of_WINDS"},"data":[0,0,0,0,0,0,0,0,0,0,0,0,0,0,0,0,0,0,0,0,0,0,0,0,0,0,0,0,0,0,0,0,0,0,0,0,0,0,0,0,0,0,0,0,0,0,0,0,0,0,0,0,0,0,0,0,0,0,3.118,3.1181,0,3.128,3.1282,3.1283,3.1242,3.1239,3.1237,3.1235,3.1334,3.1338,3.1343,0,0,0,0,0,0,0,0,0,0,0,0,0,3.0951,3.0955,3.118,3.1182,3.1183,3.128,3.1282,3.1283,3.1242,3.1239,3.1236,3.1234,3.1332,3.1338,3.1344,0,0,0,0,0,0,0,0,0,0,0,0,0,3.1051,3.0957,3.118,3.1174,3.1175,3.128,3.1282,3.1283,3.1243,3.1239,3.1236,3.1232,3.133,3.1337,3.1344,3.146,0,0,3.1367,3.137,0,0,0,0,0,0,0,0,3.1045,3.1059,3.1174,3.1175,3.1176,3.1245,3.1237,3.1342,3.1244,3.1217,3.1235,3.1231,3.1307,3.1316,3.1342,3.1465,3.1469,3.1367,3.1372,3.1375,3.1377,0,0,0,0,0,0,0,3.1038,3.1055,3.122,3.1176,3.1177,3.1166,3.1176,3.1257,3.128,3.1219,3.1216,3.1229,3.1307,3.1335,3.1344,3.147,3.1367,3.1373,3.1378,3.1381,3.1692,3.1696,0,0,0,0,0,0,3.1032,3.1049,3.1217,3.1223,3.11,3.1173,3.1184,3.1226,3.1279,3.1284,3.1232,3.1227,3.1325,3.1336,3.1348,3.1486,3.1375,3.1381,3.1386,3.1689,3.1693,3.1698,0,0,0,0,0,0,3.1027,3.1047,3.1213,3.1135,3.1156,3.118,3.1228,3.123,3.1259,3.1289,3.1293,3.1257,3.1322,3.1337,3.1433,3.1489,3.1385,3.1391,3.1684,3.169,3.1695,3.1764,0,0,0,0,0,0,3.102,3.1045,3.109,3.1137,3.116,3.1297,3.1232,3.1235,3.1272,3.1266,3.1314,3.1318,3.1321,3.1422,3.144,3.1497,3.1397,3.1679,3.1687,3.1694,3.1757,3.1772,3.1785,0,0,0,0,0,3.1012,3.1105,3.1093,3.1113,3.1217,3.13,3.1313,3.1315,3.1277,3.1321,3.1341,3.1317,3.148,3.1432,3.1452,3.1512,3.1675,3.1684,3.1693,3.1751,3.1769,3.1784,0,0,0,0,0,0,3.1063,3.1111,3.1098,3.1209,3.1251,3.1293,3.135,3.1334,3.1388,3.138,3.1379,3.139,3.1489,3.151,3.1455,3.1627,3.1572,3.1585,3.1609,3.1626,3.164,3.1632,3.1403,0,0,0,0,0,3.1088,3.1153,3.119,3.1284,3.1306,3.1325,3.1361,3.1359,3.1403,3.142,3.1446,3.1488,3.1549,3.1589,3.1647,3.176,3.177,3.1812,3.1825,3.1836,3.1847,3.1909,3.1928,3.1727,3.1727,3.1726,0,0,3.1138,3.1172,3.1213,3.1295,3.1328,3.1394,3.134,3.1412,3.1461,3.143,3.1522,3.1543,3.159,3.1695,3.1743,3.1716,3.1905,3.1848,3.1856,3.1861,3.192,3.1939,3.1956,3.1733,3.1732,3.1731,0,0,3.1263,3.1296,3.1378,3.1412,3.1463,3.1475,3.1494,3.154,3.1553,3.1645,3.1623,3.1681,3.1786,3.182,3.1852,3.1991,3.1971,3.201,3.2081,3.2141,3.2157,3.2171,3.222,3.2238,3.2021,3.2021,3.2022,0,3.1319,3.142,3.1422,3.1497,3.1533,3.151,3.1592,3.1625,3.1691,3.1716,3.1686,3.1817,3.1847,3.196,3.1994,3.202,3.2042,3.2004,3.2155,3.2169,3.2182,3.2229,3.2247,3.2026,3.2025,3.2025,3.2024,0,3.1485,3.1555,3.1615,3.1681,3.1725,3.1803,3.1816,3.1859,3.1854,3.1869,3.1963,3.1998,3.2063,3.2089,3.2084,3.2202,3.2183,3.2154,3.2099,3.2205,3.2249,3.2267,3.2032,3.2031,3.2029,3.2028,0,0,3.1645,3.1712,3.1734,3.1763,3.1818,3.1871,3.1948,3.2013,3.205,3.2096,3.216,3.225,3.2224,3.2259,3.2258,3.231,3.2418,3.2274,3.2275,3.2299,3.2549,3.257,3.2591,3.2406,3.2409,3.2412,3.2545,0,3.1774,3.191,3.1914,3.2038,3.2102,3.2082,3.2148,3.2189,3.2205,3.2261,3.2278,3.2342,3.2302,3.2323,3.2375,3.2394,3.2468,3.2385,3.2464,3.2467,3.2452,3.2614,3.2637,3.276,3.2562,3.2565,3.2567,0,3.1943,3.1996,3.2127,3.2172,3.2199,3.2259,3.2319,3.2373,3.2418,3.2426,3.2466,3.2457,3.2535,3.2478,3.2585,3.2528,3.2561,3.2575,3.258,3.2587,3.2523,3.2624,3.28,3.2818,3.2594,3.2592,3.259,0,3.2045,3.2149,3.2241,3.2267,3.2323,3.2365,3.239,3.2432,3.2471,3.2522,3.2547,3.2607,3.2639,3.2685,3.2692,3.2651,3.2799,3.2743,3.2807,3.2807,3.2838,3.2836,3.3021,3.2861,3.2861,3.2861,3.286,0,3.2188,3.2269,3.2288,3.2344,3.2433,3.2438,3.2526,3.2547,3.2585,3.2644,3.263,3.2685,3.2692,3.275,3.2756,3.2843,3.2858,3.2866,3.2866,3.2866,3.2865,3.2887,3.2878,3.2866,3.2864,3.2864,3.2863,0,3.2317,3.2333,3.2432,3.2477,3.249,3.2554,3.2592,3.2645,3.266,3.2736,3.2753,3.2777,3.2844,3.2856,3.2935,3.2939,3.3042,3.3035,3.3028,3.3026,3.3089,3.3083,3.3294,3.3322,3.3145,3.3146,3.3148,0,3.2407,3.2469,3.2521,3.256,3.2587,3.2651,3.269,3.2697,3.2738,3.2795,3.2841,3.2907,3.296,3.3068,3.3091,3.3151,3.3144,3.3214,3.3153,3.3152,3.3145,3.3141,3.3146,3.3225,3.3227,3.3229,3.323,0,3.2565,3.257,3.2628,3.2689,3.2737,3.2785,3.2831,3.2864,3.2876,3.2924,3.2993,3.3034,3.3115,3.318,3.324,3.3265,3.325,3.325,3.3267,3.3268,3.3261,3.3265,3.3059,3.3244,3.3243,3.3242,3.3241,3.324,3.2676,3.273,3.2775,3.284,3.2876,3.2919,3.2972,3.2994,3.3052,3.3119,3.3119,3.3195,3.3238,3.3317,3.3346,3.3405,3.3382,3.3408,3.3415,3.3421,3.3427,3.3253,3.3416,3.3415,3.3415,3.3415,3.3414,0,3.2833,3.2861,3.2921,3.2986,3.3037,3.302,3.307,3.3113,3.318,3.3223,3.3276,3.3355,3.3418,3.3447,3.3509,3.3551,3.3545,3.3567,3.3563,3.3569,3.3443,3.3421,3.357,3.357,3.357,3.357,3.357,3.357,3.292,3.301,3.3021,3.3128,3.3155,3.323,3.326,3.3299,3.3333,3.3423,3.3476,3.3495,3.3532,3.3597,3.3654,3.3661,3.3684,3.3709,3.3712,3.3594,3.3578,3.3563,3.3542,3.3714,3.3714,3.3833,3.3834,3.3835]}]]